Location: Dehesa de la Cepeda
(40.6574°N, 4.3013°W)
Time: 02:59:54
(UTC+00:00)

Courier 1B - Pass Details

Date: 09 August 2021
Orbit: 963 x 1209 km, 28.3° (Epoch: 17 September)

Event Time Altitude Azimuth Distance (km) Brightness Sun altitude
Rises 20:55:04 0° 259° (W) 4,100 11.4 -16.0°
Reaches altitude 10° 20:59:05 10° 241° (WSW) 3,141 10.4 -16.6°
Maximum altitude 21:03:45 17° 204° (SSW) 2,635 9.6 -17.3°
Enters shadow 21:07:12 13° 175° (S) 2,903 9.6 -17.8°
Drops below altitude 10° 21:08:24 10° 167° (SSE) 3,110 - -18.0°
Sets 21:12:22 0° 148° (SSE) 4,041 - -18.5°
